Weather History for KFYJ - November, 2012

Change the Weather History Date:

Tuesday, November 20, 2012

  Actual Average (KRIC) Record (KRIC)
Temperature  
Mean Temperature 50 °F 49 °F  
Max Temperature 55 °F 60 °F 80 °F (1913)
Min Temperature 45 °F 38 °F 21 °F (1951)
Degree Days  
Heating Degree Days 14 16  
Month to date heating degree days 263  
Since 1 July heating degree days 496  
Cooling Degree Days 0 0  
Month to date cooling degree days 0  
Year to date cooling degree days 1543  
Moisture  
Dew Point 45 °F    
Average Humidity 80    
Maximum Humidity 95    
Minimum Humidity 66    
Precipitation  
Precipitation 0.00 in 0.11 in 1.79 in (1952)
Month to date precipitation 2.15  
Year to date precipitation 39.25  
Snow  
Snow 0.00 in 0.00 in T in (1947)
Month to date snowfall 0.1  
Since 1 July snowfall 0.1  
Snow Depth -    
Sea Level Pressure  
Sea Level Pressure 30.14 in    
Wind  
Wind Speed 3 mph (NNE)    
Max Wind Speed 6 mph    
Max Gust Speed -    
Visibility 10 miles    
Events      
T = Trace of Precipitation, MM = Missing Value Source: NWS Daily Summary

Daily Weather History Graph

Daily Weather History Graph

Search for Another Location

Airport or City:

Trip Planner

Search our weather history database for the weather conditions in past years. The results will help you decide how hot, cold, wet, or windy it might be!

Date:

Astronomy

Nov. 20, 2012 Rise Set
Actual Time 6:52 AM EST 4:52 PM EST
Civil Twilight 6:24 AM EST 5:21 PM EST
Nautical Twilight 5:52 AM EST 5:52 PM EST
Astronomical Twilight 5:21 AM EST 6:24 PM EST
Moon 12:29 PM EST (11/20) No Moon Set
Length of Visible Light 10h 56m
Length of Day
10h 00m
Waxing Crescent, 51% of the Moon is Illuminated
Nov 20
Waxing Crescent
Nov 28
Full
Dec 6
Last Quarter
Dec 13
New
Dec 20
First Quarter

Hourly Weather History & Observations

Time (EST) Temp. Dew Point Humidity Pressure Visibility Wind Dir Wind Speed Gust Speed Precip Events Conditions
12:15 AM 50.4 °F 44.2 °F 80% 30.21 in 10.0 mi Calm Calm - N/A   Overcast
12:35 AM 50.2 °F 44.2 °F 80% 30.20 in 10.0 mi NNW 4.6 mph - N/A   Overcast
12:55 AM 50.2 °F 44.2 °F 80% 30.19 in 10.0 mi North 3.5 mph - N/A   Overcast
1:15 AM 50.0 °F 44.2 °F 81% 30.19 in 10.0 mi North 4.6 mph - N/A   Overcast
1:35 AM 50.0 °F 44.2 °F 81% 30.18 in 10.0 mi NNE 5.8 mph - N/A   Overcast
1:55 AM 49.6 °F 44.6 °F 83% 30.18 in 10.0 mi NNE 4.6 mph - N/A   Overcast
2:15 AM 49.5 °F 44.6 °F 83% 30.18 in 10.0 mi NNE 3.5 mph - N/A   Overcast
2:35 AM 49.5 °F 44.8 °F 84% 30.18 in 10.0 mi North 3.5 mph - N/A   Overcast
2:55 AM 49.5 °F 45.0 °F 84% 30.17 in 10.0 mi Calm Calm - N/A   Overcast
3:15 AM 49.1 °F 45.0 °F 86% 30.17 in 10.0 mi North 3.5 mph - N/A   Overcast
3:35 AM 49.1 °F 45.1 °F 86% 30.16 in 10.0 mi NNE 3.5 mph - N/A   Overcast
7:15 AM 48.4 °F 45.7 °F 90% 30.19 in 10.0 mi Calm Calm - N/A   Overcast
7:35 AM 48.7 °F 45.9 °F 90% 30.18 in 10.0 mi Calm Calm - N/A   Overcast
7:55 AM 49.1 °F 46.0 °F 89% 30.18 in 10.0 mi Calm Calm - N/A   Overcast
8:15 AM 49.6 °F 46.2 °F 88% 30.19 in 10.0 mi NNE 3.5 mph - N/A   Overcast
8:35 AM 50.4 °F 46.4 °F 86% 30.19 in 10.0 mi North 4.6 mph - N/A   Overcast
8:55 AM 51.1 °F 46.6 °F 85% 30.18 in 10.0 mi NNE 5.8 mph - N/A   Overcast
9:15 AM 51.6 °F 46.6 °F 83% 30.18 in 10.0 mi North 4.6 mph - N/A   Overcast
9:35 AM 52.3 °F 47.1 °F 82% 30.17 in 10.0 mi Calm Calm - N/A   Overcast
9:55 AM 52.9 °F 46.8 °F 80% 30.17 in 10.0 mi North 4.6 mph - N/A   Overcast
10:15 AM 53.6 °F 47.3 °F 79% 30.17 in 10.0 mi North 4.6 mph - N/A   Overcast
10:35 AM 54.0 °F 46.9 °F 77% 30.17 in 10.0 mi NNW 5.8 mph - N/A   Overcast
10:55 AM 54.5 °F 46.9 °F 76% 30.16 in 10.0 mi North 4.6 mph - N/A   Overcast
11:15 AM 54.9 °F 46.9 °F 75% 30.16 in 10.0 mi NNW 4.6 mph - N/A   Overcast
11:35 AM 55.4 °F 46.8 °F 73% 30.15 in 10.0 mi North 3.5 mph - N/A   Overcast
11:55 AM 55.2 °F 46.2 °F 72% 30.14 in 10.0 mi NNW 5.8 mph - N/A   Overcast
12:15 PM 55.6 °F 45.9 °F 70% 30.14 in 10.0 mi North 5.8 mph - N/A   Overcast
12:35 PM 55.4 °F 45.3 °F 69% 30.13 in 10.0 mi NE 5.8 mph - N/A   Overcast
12:55 PM 55.6 °F 44.4 °F 66% 30.12 in 10.0 mi NNE 5.8 mph - N/A   Overcast
1:15 PM 55.4 °F 44.4 °F 67% 30.13 in 10.0 mi NNW 4.6 mph - N/A   Overcast
1:35 PM 55.4 °F 44.4 °F 67% 30.12 in 10.0 mi NNE 4.6 mph - N/A   Overcast
1:55 PM 55.4 °F 44.2 °F 66% 30.11 in 10.0 mi North 5.8 mph - N/A   Overcast
2:15 PM 55.4 °F 44.1 °F 66% 30.11 in 10.0 mi North 4.6 mph - N/A   Overcast
2:35 PM 55.2 °F 44.2 °F 67% 30.11 in 10.0 mi North 4.6 mph - N/A   Overcast
2:55 PM 55.8 °F 44.4 °F 66% 30.10 in 10.0 mi NNE 4.6 mph - N/A   Overcast
3:15 PM 55.2 °F 44.2 °F 67% 30.10 in 10.0 mi NE 4.6 mph - N/A   Overcast
3:35 PM 54.9 °F 45.7 °F 71% 30.10 in 10.0 mi East 4.6 mph - N/A   Overcast
3:55 PM 54.5 °F 45.5 °F 72% 30.10 in 10.0 mi ENE 4.6 mph - N/A   Mostly Cloudy
4:15 PM 53.6 °F 45.3 °F 74% 30.10 in 10.0 mi ENE 3.5 mph - N/A   Mostly Cloudy
4:35 PM 53.6 °F 45.5 °F 74% 30.10 in 10.0 mi Calm Calm - N/A   Overcast
4:55 PM 52.7 °F 45.5 °F 76% 30.09 in 10.0 mi Calm Calm - N/A   Mostly Cloudy
5:15 PM 51.1 °F 45.5 °F 81% 30.10 in 10.0 mi Calm Calm - N/A   Overcast
5:35 PM 49.5 °F 45.3 °F 86% 30.10 in 10.0 mi Calm Calm - N/A   Overcast
5:55 PM 50.9 °F 45.7 °F 82% 30.11 in 10.0 mi Calm Calm - N/A   Overcast
6:15 PM 50.9 °F 45.9 °F 83% 30.12 in 10.0 mi ENE 4.6 mph - N/A   Overcast
6:35 PM 50.0 °F 45.7 °F 85% 30.13 in 10.0 mi NE 3.5 mph - N/A   Overcast
6:55 PM 50.0 °F 45.5 °F 85% 30.13 in 10.0 mi Calm Calm - N/A   Overcast
7:15 PM 50.0 °F 44.8 °F 82% 30.13 in 10.0 mi Calm Calm - N/A   Overcast
7:35 PM 50.2 °F 44.6 °F 81% 30.13 in 10.0 mi Calm Calm - N/A   Overcast
7:55 PM 50.0 °F 44.6 °F 82% 30.13 in 10.0 mi Calm Calm - N/A   Overcast
8:15 PM 50.0 °F 44.6 °F 82% 30.13 in 10.0 mi NNE 3.5 mph - N/A   Overcast
8:35 PM 50.0 °F 44.6 °F 82% 30.13 in 10.0 mi NNE 3.5 mph - N/A   Overcast
8:55 PM 50.0 °F 44.6 °F 82% 30.13 in 10.0 mi Calm Calm - N/A   Overcast
9:15 PM 50.0 °F 44.6 °F 82% 30.14 in 10.0 mi NNE 4.6 mph - N/A   Overcast
9:35 PM 50.0 °F 44.6 °F 82% 30.14 in 10.0 mi North 3.5 mph - N/A   Overcast
9:55 PM 50.0 °F 44.6 °F 82% 30.14 in 10.0 mi NNE 3.5 mph - N/A   Overcast
10:15 PM 49.5 °F 44.6 °F 83% 30.14 in 10.0 mi NNE 4.6 mph - N/A   Overcast
10:35 PM 49.1 °F 44.6 °F 84% 30.14 in 10.0 mi Calm Calm - N/A   Overcast
10:55 PM 48.4 °F 44.4 °F 86% 30.13 in 10.0 mi NNE 3.5 mph - N/A   Overcast
11:15 PM 47.3 °F 44.1 °F 88% 30.13 in 10.0 mi North 3.5 mph - N/A   Scattered Clouds
11:35 PM 46.2 °F 44.1 °F 92% 30.13 in 10.0 mi Calm Calm - N/A   Clear
11:55 PM 45.0 °F 43.7 °F 95% 30.13 in 10.0 mi Calm Calm - N/A   Clear